Main page
METAR-TAF:

METAR-TAF

Airports :

Hohenfels, Germany

latitude: 49-13N, longitude: 011-50E, elevation: 442 m

Current weather observation

The report was made 1 hour and 8 minutes ago, at 07:56 UTC
Wind 4 kt from the East/Southeast
Temperature 18°C
Humidity 94%
Pressure 1015 hPa
Visibility 10 km or more
Clear sky

METAR: ETIH 210756Z AUTO 12004KT 9999 CLR 18/17 A2996 RMK AO2 SLP137 T01820165 $

Time: 11:04 (09:04 UTC)


TAF: missing

Weather observations and forecasts of more than 4000 airports (METAR and TAF reports).

The available stations are represented by yellow and red dots on the map.

Hover mouse over dot to see the name of the station.

Then click to see weather observations and forecasts.

To change the map : click on the green buttons with a black cross to zoom in, on the green button with a dash to zoom out, or on the green arrows for adjacent maps.


METAR-TAF: